Concord, NH

9:04 AM EST on December 16, 2017 (GMT -0500)
Concord Municipal

Weather History for KCON - July, 2013

Change the Weather History Date:

Tuesday, July 2, 2013

  Actual Average Record
Temperature  
Mean Temperature 69 °F 69 °F  
Max Temperature 77 °F 81 °F 98 °F (1966)
Min Temperature 61 °F 57 °F 38 °F (1978)
Degree Days  
Heating Degree Days 0 1  
Month to date heating degree days 0 2  
Since 1 June heating degree days 72 87  
Since 1 July heating degree days 0 2  
Cooling Degree Days 4 5  
Month to date cooling degree days 11 10  
Year to date cooling degree days 141 112  
Since 1 June cooling degree days 120 94  
Growing Degree Days 18 (Base 50)    
Moisture  
Dew Point 67 °F    
Average Humidity 97    
Maximum Humidity 100    
Minimum Humidity 93    
Precipitation  
Precipitation 0.74 in 0.11 in 1.65 in (2009)
Month to date precipitation 1.45 0.22  
Year to date precipitation 20.99 19.57  
Snow  
Snow 0.00 in 0.00 in 0.00 in (2002)
Month to date snowfall 0.0 0.0  
Since 1 June snowfall 0.0 0.0  
Since 1 July snowfall 0.0 0.0  
Snow Depth 0.00 in    
Sea Level Pressure  
Sea Level Pressure 30.14 in    
Wind  
Wind Speed 5 mph (ESE)    
Max Wind Speed 15 mph    
Max Gust Speed 20 mph    
Visibility 7 miles    
Events Rain    
T = Trace of Precipitation, MM = Missing Value Source: NWS Daily Summary

Daily Weather History Graph

Daily Weather History Graph

Search for Another Location

Airport or City:

Trip Planner

Search our weather history database for the weather conditions in past years. The results will help you decide how hot, cold, wet, or windy it might be!

Date:

Astronomy

Jul. 02, 2013 Rise Set
Actual Time 5:10 AM EDT 8:29 PM EDT
Civil Twilight 4:35 AM EDT 9:04 PM EDT
Nautical Twilight 3:49 AM EDT 9:50 PM EDT
Astronomical Twilight 2:53 AM EDT 10:46 PM EDT
Moon 1:16 AM EDT (7/2) 3:36 PM EDT (7/2)
Length of Visible Light 16h 29m
Length of Day
15h 18m
Waning Crescent, 26% of the Moon is Illuminated
Jul 2
Waning Crescent
Jul 8
New
Jul 15
First Quarter
Jul 22
Full
Jul 29
Last Quarter

Hourly Weather History & Observations

Time (EDT) Temp. Dew Point Humidity Pressure Visibility Wind Dir Wind Speed Gust Speed Precip Events Conditions
12:51 AM 71.1 °F 71.1 °F 100% 30.06 in 9.0 mi SE 4.6 mph - N/A   Overcast
1:09 AM 71.6 °F 71.6 °F 100% 30.06 in 10.0 mi SSE 4.6 mph - N/A   Scattered Clouds
1:51 AM 71.1 °F 71.1 °F 100% 30.06 in 9.0 mi SSE 5.8 mph - N/A   Scattered Clouds
2:34 AM 71.6 °F 71.6 °F 100% 30.08 in 9.0 mi SSE 8.1 mph - N/A   Overcast
2:51 AM 71.1 °F 71.1 °F 100% 30.07 in 9.0 mi SSE 5.8 mph - N/A   Overcast
3:17 AM 71.6 °F 71.6 °F 100% 30.07 in 9.0 mi SSE 6.9 mph - N/A   Overcast
3:36 AM 71.6 °F 71.6 °F 100% 30.08 in 10.0 mi SSE 3.5 mph - N/A   Overcast
3:46 AM 71.6 °F 71.6 °F 100% 30.08 in 10.0 mi SSE 4.6 mph - N/A   Mostly Cloudy
3:51 AM 71.1 °F 70.0 °F 96% 30.08 in 10.0 mi SSE 4.6 mph - N/A   Mostly Cloudy
4:06 AM 71.6 °F 69.8 °F 94% 30.08 in 9.0 mi SE 3.5 mph - N/A   Mostly Cloudy
4:51 AM 70.0 °F 70.0 °F 100% 30.08 in 9.0 mi SSE 5.8 mph - N/A   Mostly Cloudy
5:37 AM 69.8 °F 69.8 °F 100% 30.09 in 7.0 mi SSE 5.8 mph - N/A   Mostly Cloudy
5:51 AM 71.1 °F 70.0 °F 96% 30.10 in 8.0 mi Calm Calm - N/A   Mostly Cloudy
6:01 AM 71.6 °F 69.8 °F 94% 30.10 in 8.0 mi Calm Calm - N/A   Overcast
6:21 AM 71.6 °F 71.6 °F 100% 30.11 in 8.0 mi SSE 5.8 mph - N/A   Overcast
6:39 AM 71.6 °F 71.6 °F 100% 30.12 in 8.0 mi SSE 4.6 mph - N/A   Overcast
6:51 AM 71.1 °F 71.1 °F 100% 30.12 in 8.0 mi SSE 4.6 mph - N/A   Overcast
7:51 AM 72.0 °F 72.0 °F 100% 30.12 in 9.0 mi SSE 6.9 mph - N/A   Overcast
8:51 AM 73.9 °F 72.0 °F 93% 30.14 in 10.0 mi SSE 5.8 mph - N/A   Mostly Cloudy
9:07 AM 73.4 °F 71.6 °F 94% 30.14 in 10.0 mi SSE 5.8 mph - 0.00 in Rain Light Rain
10:01 AM 73.4 °F 73.4 °F 100% 30.13 in 7.0 mi Calm Calm - 0.01 in Rain Light Rain
10:51 AM 75.0 °F 73.0 °F 94% 30.14 in 10.0 mi SSE 8.1 mph - 0.02 in Rain Light Rain
11:18 AM 75.2 °F 73.4 °F 94% 30.14 in 10.0 mi SE 5.8 mph - 0.00 in Rain Light Rain
11:51 AM 77.0 °F 73.0 °F 88% 30.14 in 10.0 mi SE 5.8 mph - 0.00 in   Overcast
12:14 PM 69.8 °F 66.2 °F 88% 30.14 in 10.0 mi NE 13.8 mph 19.6 mph N/A   Overcast
12:51 PM 66.9 °F 64.9 °F 93% 30.15 in 1.5 mi Variable 6.9 mph - 0.01 in Rain Light Rain
1:00 PM 66.2 °F 64.4 °F 94% 30.15 in 1.2 mi NE 8.1 mph 17.3 mph 0.09 in Rain Light Rain
1:04 PM 66.2 °F 64.4 °F 94% 30.15 in 2.5 mi NE 8.1 mph 17.3 mph 0.09 in Rain Light Rain
1:11 PM 66.2 °F 64.4 °F 94% 30.16 in 8.0 mi NE 9.2 mph - 0.09 in Rain Light Rain
1:51 PM 64.9 °F 64.0 °F 97% 30.17 in 10.0 mi NE 5.8 mph - 0.09 in   Overcast
2:24 PM 64.4 °F 64.4 °F 100% 30.17 in 1.8 mi NE 5.8 mph - 0.01 in Rain Heavy Rain
2:36 PM 64.4 °F 64.4 °F 100% 30.17 in 3.0 mi East 5.8 mph - 0.10 in Rain Light Rain
2:51 PM 64.9 °F 64.0 °F 97% 30.17 in 9.0 mi ENE 5.8 mph - 0.10 in   Overcast
3:51 PM 64.9 °F 64.0 °F 97% 30.16 in 8.0 mi ENE 8.1 mph - 0.00 in   Overcast
4:51 PM 64.0 °F 63.0 °F 96% 30.16 in 8.0 mi East 4.6 mph - N/A   Overcast
5:51 PM 63.0 °F 62.1 °F 97% 30.18 in 6.0 mi East 5.8 mph - N/A   Overcast
6:51 PM 62.1 °F 62.1 °F 100% 30.18 in 4.0 mi East 4.6 mph - 0.00 in   Overcast
7:25 PM 62.6 °F 60.8 °F 94% 30.19 in 4.0 mi East 5.8 mph - N/A   Overcast
7:51 PM 62.1 °F 62.1 °F 100% 30.19 in 3.0 mi NE 4.6 mph - 0.00 in Rain Light Rain
8:13 PM 62.6 °F 62.6 °F 100% 30.20 in 2.5 mi NE 3.5 mph - 0.00 in Rain Light Rain
8:21 PM 62.6 °F 62.6 °F 100% 30.20 in 4.0 mi NE 4.6 mph - 0.00 in Rain Light Rain
8:51 PM 62.1 °F 61.0 °F 96% 30.21 in 5.0 mi ENE 3.5 mph - 0.01 in   Overcast
9:51 PM 61.0 °F 61.0 °F 100% 30.22 in 5.0 mi Calm Calm - N/A   Overcast
10:51 PM 62.1 °F 61.0 °F 96% 30.21 in 3.0 mi Calm Calm - 0.04 in Rain Rain
11:03 PM 60.8 °F 60.8 °F 100% 30.21 in 1.8 mi NNE 3.5 mph - 0.08 in Rain Heavy Rain
11:14 PM 60.8 °F 60.8 °F 100% 30.22 in 3.0 mi North 4.6 mph - 0.18 in Rain Light Rain
11:42 PM 60.8 °F 60.8 °F 100% 30.23 in 5.0 mi Calm Calm - 0.19 in Rain Light Rain
11:51 PM 61.0 °F 61.0 °F 100% 30.21 in 4.0 mi SSE 6.9 mph - 0.20 in Rain Light Rain